Temperature
18 17 16 16 15 14 14 13 12 11 11 10 10 10 10 9 9 9 9 9 8 8 8 8 9 9 9 9 10 10 10 11 11 11 11 10 10 10 10 11 12 11 11
19 18 17 16 16 15 14 13 12 12 11 11 10 10 10 9 9 9 9 8 8 8 8 8 8 8 9 9 10 10 10 11 11 11 11 10 9 9 9 9 10 10 10
19 18 17 16 16 15 15 14 13 12 12 11 10 10 10 10 9 9 8 8 8 8 8 8 8 8 9 9 10 10 11 11 11 11 10 10 9 8 8 9 9 9 9
19 18 17 16 16 15 14 14 13 13 12 11 11 10 10 10 9 9 9 9 9 9 9 9 9 9 9 9 10 11 11 11 11 10 10 10 9 8 8 8 8 8 8
19 18 17 16 16 15 14 14 13 13 12 12 11 11 10 10 9 9 9 9 9 9 9 9 9 9 9 10 10 11 11 11 10 10 10 10 9 8 7 7 7 7 8
19 18 17 16 15 15 14 13 13 13 12 12 11 11 10 10 9 9 9 9 9 9 9 9 9 9 10 10 10 10 10 10 10 10 10 9 8 7 7 7 7 7 7
19 18 17 16 15 14 13 13 12 12 12 11 11 10 10 10 9 9 10 10 10 10 10 9 9 10 10 10 10 10 10 10 10 9 9 9 8 7 7 7 7 7 7
19 18 17 16 15 14 13 12 12 12 12 11 11 10 10 9 9 10 10 10 10 9 9 9 9 10 10 10 10 10 10 9 9 9 9 9 8 7 7 7 7 7 7
18 18 17 16 15 13 12 12 12 11 11 11 11 10 10 9 9 9 10 10 10 9 9 9 9 9 9 9 10 10 9 9 9 9 9 9 8 8 8 8 8 7 7
18 17 17 16 15 14 12 12 11 11 11 11 11 10 10 10 10 9 10 10 10 9 9 9 9 9 9 9 9 9 9 9 9 9 9 9 9 8 8 8 8 8 8
18 17 17 16 15 14 13 12 11 11 11 11 11 10 10 10 10 10 10 10 10 9 9 9 9 9 9 9 9 9 9 9 9 9 9 9 9 8 8 8 8 8 8
19 18 17 16 15 14 13 12 11 11 11 11 11 11 11 11 11 11 10 10 10 9 9 9 9 9 9 9 9 9 9 9 9 9 8 8 8 8 8 8 8 8 8
19 18 18 17 16 15 14 13 12 11 11 11 11 11 11 11 11 11 11 10 10 10 10 9 9 9 9 9 9 9 9 9 9 8 8 8 8 8 8 7 7 7 7
18 18 18 17 16 15 14 13 12 12 11 11 11 11 11 11 11 11 11 10 10 10 9 9 9 9 9 9 9 9 9 9 8 8 8 8 8 8 8 7 7 6 6
18 17 17 17 16 15 14 13 13 12 12 11 11 11 10 11 11 10 10 10 10 9 9 9 9 8 8 8 8 8 8 8 8 8 8 8 8 8 8 7 6 5 5
18 17 17 16 16 15 14 14 13 13 12 11 11 10 10 10 10 10 10 10 9 9 9 8 8 8 8 8 8 8 8 8 8 8 8 8 8 8 8 7 6 5 5
18 17 17 16 15 15 14 14 13 13 12 11 11 10 10 10 10 9 9 9 9 9 8 8 8 8 8 8 8 8 8 8 8 8 8 8 8 8 8 7 7 6 5
18 17 17 16 16 15 14 14 13 12 12 11 11 10 10 9 9 9 9 9 9 8 8 8 8 7 8 8 8 8 8 7 8 8 7 8 8 8 7 7 7 7 6
18 18 17 16 16 15 14 13 12 12 11 11 11 10 10 9 9 9 9 9 8 8 7 7 7 7 7 7 7 7 7 7 7 7 7 8 7 8 8 7 7 7 7
18 18 17 16 16 15 14 13 12 12 12 11 11 10 10 9 9 9 8 8 8 7 7 7 7 7 7 7 6 6 7 7 7 7 7 7 7 8 8 8 7 7 7
17 17 16 16 15 14 14 13 12 12 12 11 11 10 10 10 9 9 8 8 8 7 7 7 6 6 6 6 5 5 6 6 7 7 7 8 8 8 8 8 8 7 7
16 16 16 15 15 14 13 12 12 11 11 11 10 10 10 10 9 9 8 8 8 7 7 6 6 6 6 5 5 4 4 5 6 7 7 8 8 8 7 7 7 7 7
16 15 15 15 14 13 13 12 11 11 11 11 10 10 10 9 9 8 8 8 7 7 7 6 6 6 5 5 5 4 3 4 4 5 5 5 5 5 6 6 6 6 6
14 14 14 14 13 13 12 12 11 11 11 10 10 9 9 9 8 8 8 7 7 7 6 6 6 6 5 5 4 4 4 4 3 3 4 4 4 4 4 4 5 5 5
13 13 13 13 13 12 12 12 11 11 11 10 10 10 9 9 8 8 8 7 7 7 6 6 6 5 5 5 4 4 4 3 3 1 1 2 3 4 4 4 4 4 3
13 13 12 12 12 12 11 11 11 11 10 10 10 10 9 9 9 8 8 7 7 7 6 6 6 5 5 4 4 3 3 3 2 2 1 1 2 3 3 3 3 3 3
Wind_Speed
9 17 24 23 21 19 18 16 15 13 12 11 10 9 9 9 10 9 10 10 11 11 12 12 12 13 13 14 14 14 16 17 18 19 19 18 18 18 17 17 17 17 18
11 23 26 24 23 21 19 17 16 14 13 12 11 10 9 9 9 9 9 9 10 10 11 11 11 12 12 13 13 14 15 16 17 17 18 18 15 17 17 17 17 16 17
12 25 25 25 24 22 20 18 17 15 14 12 11 10 9 9 9 8 8 8 9 9 10 10 10 11 11 12 12 13 14 15 15 16 18 19 15 15 16 16 16 16 16
17 25 23 26 24 22 20 19 17 16 15 13 12 11 10 9 9 8 8 8 8 8 9 9 9 10 10 11 11 12 12 14 14 16 18 17 14 13 15 15 15 15 15
17 23 22 26 24 22 21 19 18 17 15 14 13 11 11 10 9 8 8 7 7 7 7 8 8 8 9 9 10 10 11 12 13 16 17 17 14 12 13 13 13 13 14
14 21 21 26 24 23 21 20 19 18 16 15 13 12 11 10 9 8 8 7 7 7 6 6 6 7 7 8 8 9 9 10 12 14 15 15 13 10 11 11 11 12 12
12 20 19 25 24 23 21 20 19 18 17 16 14 13 12 11 10 9 8 7 7 6 6 5 5 5 5 6 7 7 7 7 9 11 12 13 11 9 9 9 10 10 10
11 17 18 24 24 23 22 21 20 19 18 16 15 14 13 12 11 10 9 8 7 6 5 5 4 4 4 4 5 5 5 4 5 7 9 11 9 7 7 7 7 8 8
12 14 16 19 23 23 23 22 21 20 19 17 16 15 14 13 12 11 10 9 8 6 5 4 3 3 2 2 3 3 4 3 2 4 7 10 7 5 5 5 5 6 6
8 10 14 15 18 20 22 22 22 21 20 18 17 16 15 14 13 12 11 10 9 7 6 5 4 3 2 1 1 2 2 3 0 3 6 8 7 4 3 3 3 3 4
9 8 12 13 14 17 19 21 22 21 21 20 18 18 16 14 12 10 11 11 10 9 8 7 6 5 3 2 1 1 2 3 3 4 7 8 6 4 3 2 2 2 2
15 13 10 12 12 14 17 19 19 19 19 19 17 17 16 13 12 10 10 12 12 10 10 9 8 6 4 3 2 2 1 3 5 7 9 9 8 6 5 4 4 4 4
12 12 13 12 13 13 13 15 15 15 16 17 17 16 14 13 12 11 9 10 10 8 7 6 4 3 3 4 5 5 5 6 8 10 11 11 11 10 9 8 7 7 7
9 13 13 12 12 13 14 13 14 13 14 14 16 17 15 12 11 11 11 10 9 7 6 6 5 5 5 7 8 8 9 10 12 13 14 14 14 13 12 11 11 10 10
11 11 12 11 12 12 12 11 13 14 14 15 16 18 18 14 11 12 11 12 11 10 9 8 8 8 8 9 10 11 12 14 15 16 17 16 16 16 16 15 14 14 13
13 12 11 13 13 13 11 10 11 14 15 16 17 19 20 18 15 13 12 12 13 14 14 13 12 11 10 10 11 13 15 16 17 18 20 19 19 19 19 18 18 17 17
11 10 12 13 11 12 12 12 13 14 16 15 16 19 21 20 18 16 13 13 16 17 16 13 12 10 8 9 9 13 15 17 18 20 21 21 21 21 21 21 21 21 20
9 9 11 12 13 13 11 11 12 13 15 15 17 18 20 21 21 18 14 14 17 17 15 10 7 5 6 7 7 8 12 14 17 19 20 21 21 21 23 24 24 24 23
7 8 9 11 12 13 10 9 10 11 13 15 16 17 19 21 21 19 16 16 17 14 13 10 7 6 8 9 9 8 8 11 15 18 18 21 22 23 23 25 27 27 26
0 4 7 9 9 9 7 6 5 7 8 12 15 18 19 20 22 21 17 16 15 9 9 8 9 8 7 8 9 9 9 9 11 13 18 20 22 24 25 25 25 25 28
6 2 3 5 6 6 5 6 6 8 6 6 11 16 19 21 21 21 16 13 13 11 13 12 9 9 8 4 3 6 8 12 15 14 16 16 19 24 24 24 23 23 23
8 5 1 2 5 6 6 5 4 3 4 6 8 14 19 21 21 21 17 12 11 11 12 11 10 7 6 7 6 3 6 6 7 13 12 12 12 15 17 22 22 23 22
11 8 4 1 2 5 5 4 2 2 1 2 5 7 13 19 20 21 20 17 12 12 13 15 14 12 11 8 9 7 5 7 5 5 7 10 10 9 10 15 19 22 23
9 8 6 4 2 2 5 4 6 6 6 7 5 6 7 14 19 21 21 19 14 13 15 16 15 14 12 11 7 11 12 7 6 6 4 5 7 9 10 11 15 20 23
8 8 7 6 5 2 2 5 5 7 8 6 4 6 7 8 14 18 19 17 15 14 16 16 14 15 14 15 11 7 11 11 10 10 12 7 6 8 10 11 11 15 20
8 8 8 8 6 4 1 2 5 7 8 7 8 8 7 6 7 11 15 14 14 14 16 17 16 15 16 16 15 11 9 7 9 12 17 13 11 8 10 11 11 12 18
Wind_Direction
199 187 185 178 175 174 172 170 166 161 156 150 142 134 125 117 109 103 96 90 85 80 75 72 70 68 67 66 65 62 59 56 52 47 45 51 63 66 67 66 61 58 61
169 179 184 178 177 176 176 173 169 166 162 156 150 144 136 127 120 113 104 97 91 85 79 75 72 70 68 68 68 66 63 60 55 49 42 35 49 65 63 62 63 61 62
159 174 185 179 179 179 179 176 173 170 168 164 159 153 146 139 131 124 116 106 99 91 84 78 75 74 71 71 70 69 66 62 56 48 39 28 31 63 63 62 61 61 61
163 173 184 180 180 181 181 179 176 175 174 170 166 162 157 151 144 135 126 118 109 100 93 85 80 77 76 75 73 71 68 61 53 45 36 27 24 58 62 61 60 60 59
164 174 185 180 181 183 183 182 180 179 178 176 174 170 166 161 155 148 139 130 121 112 104 95 87 81 80 79 78 74 70 61 49 42 33 25 20 54 61 60 60 59 59
166 175 186 182 183 185 186 186 184 184 183 182 180 178 175 171 167 159 151 144 135 127 117 106 94 85 83 84 84 80 74 60 47 40 28 20 14 51 60 60 60 59 58
165 175 187 184 186 188 189 189 189 189 188 188 186 185 184 181 177 171 166 159 153 145 134 122 108 94 85 86 90 90 82 65 47 33 19 9 6 51 58 57 58 58 57
164 174 186 188 189 191 192 193 193 193 193 193 192 192 191 189 186 182 180 176 172 165 154 143 128 110 94 89 94 100 96 72 48 23 6 358 1 50 56 54 53 55 55
167 175 188 196 193 195 196 197 197 197 198 198 198 198 198 197 194 193 192 190 187 182 175 168 156 143 122 100 100 106 114 97 50 3 350 345 355 40 51 49 47 49 50
171 183 192 201 196 195 197 199 200 201 202 202 203 202 203 203 203 202 200 199 199 198 195 194 194 195 194 182 139 139 139 138 153 321 325 328 339 7 29 31 27 30 35
192 196 195 203 200 194 194 199 202 204 205 206 206 205 206 205 205 208 200 205 210 211 211 213 216 222 223 238 268 214 144 169 235 277 292 305 313 319 328 333 332 334 341
201 200 198 200 198 193 193 198 202 203 205 206 205 204 203 197 198 202 203 211 219 221 222 225 228 232 217 209 289 0 148 226 247 264 276 288 290 289 287 284 283 287 288
202 200 201 200 197 193 192 192 195 197 198 200 200 198 193 189 192 196 201 212 225 231 227 231 240 204 192 208 235 254 254 250 252 259 266 277 279 277 275 272 269 270 271
201 205 202 196 197 197 194 191 190 192 194 195 196 194 185 181 186 189 195 203 212 217 214 215 217 220 222 229 237 245 250 249 252 256 261 267 272 272 271 269 266 264 263
214 208 202 196 199 197 195 193 192 194 195 196 194 195 192 186 188 193 199 205 210 214 215 218 224 230 236 242 245 246 248 249 251 253 257 261 266 269 269 268 266 264 261
219 210 199 200 200 196 200 200 199 197 196 196 197 197 198 196 194 195 201 207 213 216 219 221 225 230 239 245 250 249 250 252 252 252 254 256 260 264 266 267 266 265 263
225 209 200 203 198 200 204 204 202 197 196 199 202 202 202 202 200 200 204 211 217 218 220 223 229 234 243 246 249 251 253 253 252 253 253 253 254 258 261 263 265 265 264
225 209 202 204 201 204 206 205 204 199 201 205 204 204 206 207 205 203 209 218 218 215 214 214 216 221 234 238 246 249 249 250 251 252 252 250 250 251 253 256 259 261 262
223 208 197 200 200 203 203 203 205 202 207 209 207 208 210 211 210 209 218 222 213 210 213 220 213 212 231 240 245 248 246 248 250 251 249 247 245 245 246 250 253 255 257
156 191 193 198 199 188 186 192 202 212 216 215 213 216 213 214 213 215 224 222 209 207 217 217 225 217 226 238 254 260 251 246 245 245 247 248 245 242 241 241 244 248 252
39 59 192 196 191 171 172 189 205 224 222 222 224 223 219 218 216 217 227 222 212 219 226 221 220 226 233 215 249 279 266 246 245 245 242 242 242 241 238 237 237 239 244
27 20 3 212 194 188 188 176 184 192 214 219 224 228 226 223 221 222 226 228 219 224 229 223 213 218 223 189 194 242 294 296 246 239 237 236 239 239 236 237 235 234 236
22 10 6 325 201 195 179 151 124 107 347 246 230 232 230 228 227 227 228 229 225 222 230 229 221 219 230 213 201 200 229 250 295 259 233 233 232 229 233 235 234 235 235
11 11 21 30 64 165 166 172 190 209 232 237 230 234 232 227 229 230 232 231 230 228 231 232 226 223 225 231 214 221 229 215 238 289 259 241 234 230 229 232 234 233 233
16 22 24 39 47 63 161 190 203 231 246 259 256 252 247 235 232 233 233 233 234 233 233 234 230 224 224 231 224 211 230 239 233 247 269 256 240 229 227 227 228 229 231
21 24 25 35 35 33 66 199 221 243 259 273 271 267 264 253 243 237 236 236 237 237 237 236 235 230 229 230 231 223 213 213 216 226 248 258 258 238 224 227 226 226 229
Height
1544 1545 1548 1550 1552 1554 1556 1557 1559 1560 1561 1562 1563 1564 1564 1565 1565 1565 1565 1565 1565 1565 1564 1564 1563 1563 1563 1562 1562 1562 1562 1562 1562 1562 1562 1562 1563 1562 1561 1561 1561 1561 1561
1543 1544 1547 1549 1551 1554 1556 1557 1559 1560 1561 1562 1563 1564 1564 1565 1565 1565 1565 1565 1565 1565 1565 1565 1564 1564 1564 1563 1563 1563 1562 1562 1562 1563 1563 1563 1563 1563 1563 1562 1562 1562 1562
1542 1544 1546 1548 1551 1553 1555 1557 1559 1560 1561 1562 1563 1564 1565 1565 1565 1566 1566 1566 1566 1566 1565 1565 1565 1565 1564 1564 1564 1563 1563 1563 1563 1564 1564 1564 1564 1564 1564 1563 1563 1563 1563
1542 1543 1545 1548 1550 1553 1555 1557 1558 1560 1561 1563 1564 1564 1565 1565 1566 1566 1566 1566 1566 1566 1566 1566 1566 1566 1565 1565 1565 1565 1564 1564 1565 1565 1565 1565 1564 1565 1565 1564 1564 1564 1563
1541 1543 1545 1547 1550 1552 1554 1556 1558 1560 1561 1563 1564 1565 1565 1566 1566 1566 1566 1566 1566 1567 1567 1567 1567 1567 1566 1566 1566 1566 1566 1566 1566 1566 1566 1566 1565 1566 1565 1565 1564 1564 1564
1541 1542 1545 1547 1549 1551 1554 1556 1558 1560 1561 1562 1564 1565 1565 1566 1566 1567 1567 1567 1567 1567 1567 1567 1567 1567 1567 1567 1567 1566 1566 1566 1566 1567 1566 1566 1566 1566 1566 1565 1565 1564 1564
1541 1542 1544 1546 1548 1551 1553 1555 1557 1559 1561 1562 1563 1564 1565 1566 1566 1567 1567 1567 1567 1567 1567 1568 1568 1568 1568 1568 1567 1567 1567 1567 1567 1567 1567 1566 1566 1566 1566 1565 1565 1565 1564
1540 1541 1543 1545 1547 1550 1552 1554 1556 1558 1560 1562 1563 1564 1565 1566 1566 1567 1567 1567 1568 1568 1568 1568 1568 1568 1568 1568 1568 1568 1568 1568 1568 1568 1567 1567 1567 1567 1566 1565 1565 1565 1564
1538 1540 1541 1543 1545 1548 1550 1552 1555 1557 1559 1560 1562 1563 1565 1565 1566 1567 1567 1567 1568 1568 1568 1568 1568 1568 1568 1568 1568 1568 1568 1568 1568 1568 1568 1567 1567 1567 1566 1565 1565 1565 1564
1536 1538 1540 1541 1543 1545 1547 1550 1552 1555 1557 1559 1561 1562 1563 1565 1565 1566 1567 1567 1567 1568 1568 1568 1568 1568 1568 1568 1568 1568 1568 1568 1568 1568 1567 1567 1567 1566 1566 1565 1565 1564 1564
1533 1535 1537 1538 1540 1542 1545 1547 1550 1552 1554 1557 1559 1560 1562 1563 1564 1565 1566 1566 1567 1567 1567 1568 1567 1567 1567 1567 1567 1567 1567 1567 1567 1567 1567 1566 1566 1566 1565 1565 1564 1564 1563
1530 1531 1533 1535 1537 1539 1542 1544 1547 1549 1552 1554 1556 1558 1559 1561 1562 1564 1564 1565 1566 1566 1567 1567 1567 1567 1567 1566 1566 1566 1566 1566 1566 1566 1565 1565 1565 1564 1564 1563 1563 1562 1562
1528 1529 1530 1532 1534 1536 1539 1541 1543 1546 1548 1551 1553 1555 1557 1558 1560 1561 1563 1563 1564 1565 1565 1566 1566 1566 1566 1565 1565 1565 1564 1564 1564 1564 1563 1563 1562 1562 1562 1562 1561 1561 1560
1524 1526 1528 1530 1531 1533 1536 1538 1540 1542 1545 1547 1550 1552 1554 1555 1557 1559 1560 1561 1562 1563 1563 1564 1564 1564 1564 1564 1563 1563 1562 1562 1562 1561 1561 1560 1560 1560 1559 1559 1559 1558 1558
1520 1523 1525 1527 1528 1530 1532 1534 1536 1539 1541 1544 1546 1548 1550 1552 1554 1556 1557 1558 1559 1560 1560 1561 1561 1561 1561 1561 1560 1560 1560 1559 1559 1558 1558 1557 1557 1556 1556 1556 1556 1555 1555
1516 1518 1521 1523 1525 1527 1529 1531 1533 1535 1538 1540 1542 1544 1547 1549 1550 1552 1553 1554 1555 1556 1557 1557 1557 1557 1557 1556 1556 1556 1556 1555 1555 1555 1554 1554 1553 1552 1552 1552 1552 1552 1552
1511 1513 1515 1518 1520 1522 1525 1527 1529 1531 1534 1536 1538 1541 1543 1544 1546 1548 1549 1550 1551 1552 1553 1553 1552 1552 1551 1551 1551 1551 1550 1550 1550 1549 1549 1549 1548 1548 1547 1547 1547 1547 1547
1507 1508 1511 1513 1515 1518 1520 1523 1525 1527 1530 1532 1534 1536 1538 1540 1541 1542 1543 1544 1546 1547 1547 1547 1547 1546 1545 1545 1544 1544 1544 1544 1543 1543 1542 1542 1542 1542 1542 1541 1541 1541 1541
1504 1505 1507 1509 1511 1513 1516 1519 1521 1523 1525 1527 1529 1531 1533 1535 1536 1537 1537 1538 1540 1540 1540 1541 1540 1540 1539 1538 1538 1537 1536 1535 1535 1534 1534 1534 1534 1534 1534 1535 1534 1534 1534
1504 1504 1505 1506 1508 1510 1512 1514 1516 1518 1520 1522 1524 1525 1527 1529 1530 1531 1531 1532 1532 1533 1533 1533 1533 1532 1532 1532 1530 1527 1526 1525 1525 1524 1524 1524 1524 1525 1525 1526 1526 1526 1526
1505 1505 1505 1505 1506 1507 1509 1510 1512 1514 1516 1517 1519 1520 1521 1522 1523 1523 1524 1524 1524 1524 1524 1525 1525 1524 1523 1524 1522 1517 1515 1514 1512 1512 1513 1513 1513 1514 1514 1514 1515 1516 1516
1507 1506 1506 1505 1506 1506 1507 1508 1509 1511 1512 1513 1514 1515 1516 1516 1516 1516 1516 1516 1516 1515 1515 1516 1516 1515 1514 1516 1514 1511 1505 1501 1499 1500 1500 1500 1501 1502 1502 1503 1503 1504 1505
1509 1508 1507 1507 1506 1506 1506 1506 1507 1507 1508 1509 1509 1509 1510 1510 1509 1509 1508 1508 1507 1507 1506 1506 1506 1505 1504 1505 1505 1506 1501 1492 1491 1488 1488 1489 1490 1491 1492 1493 1493 1494 1495
1512 1511 1509 1508 1507 1506 1506 1506 1506 1506 1505 1505 1505 1504 1504 1504 1503 1502 1501 1500 1499 1498 1496 1496 1496 1495 1495 1493 1493 1493 1492 1490 1488 1479 1477 1478 1478 1479 1481 1482 1483 1484 1485
1514 1513 1511 1510 1509 1508 1507 1506 1505 1504 1504 1503 1501 1500 1499 1498 1497 1495 1494 1492 1490 1489 1487 1487 1486 1485 1484 1483 1482 1481 1480 1479 1478 1475 1466 1465 1467 1466 1468 1469 1470 1471 1472
1515 1514 1513 1511 1510 1509 1507 1506 1505 1503 1502 1500 1498 1496 1495 1493 1491 1489 1487 1485 1483 1481 1479 1477 1476 1475 1473 1472 1471 1470 1469 1467 1465 1464 1459 1454 1453 1452 1455 1455 1456 1458 1460